Wind_Speed
10 13 15 17 23 25 20 17 22 20 16 16 21 24 21 17 20 19 15 9 9 4 5 5 7 11 11 10 13 15 15 14 20 20 19 23 27 26 21 19 19 21 23 20
14 16 12 20 22 1 5 8 10 11 12 15 20 21 23 23 22 20 14 11 9 6 6 6 8 11 12 16 19 18 17 22 20 18 22 27 30 24 23 23 24 24 25 22
13 13 14 16 22 9 11 15 11 11 12 8 14 22 23 22 23 22 20 16 13 11 9 9 11 13 18 20 20 20 22 24 19 23 22 24 19 17 22 25 28 28 26 27
12 11 13 19 17 10 10 13 14 14 11 11 10 6 15 20 24 24 20 13 14 11 11 12 14 17 20 22 23 23 25 22 24 25 24 25 22 21 22 27 30 32 32 32
12 18 21 22 18 7 12 15 12 12 12 17 7 8 8 9 22 22 17 16 14 12 15 16 16 19 21 25 25 24 26 27 26 26 24 23 24 23 25 26 29 32 33 35
26 25 26 24 14 12 15 13 12 14 16 4 6 8 8 11 13 17 16 18 15 18 14 16 19 22 27 29 23 25 28 28 26 23 23 21 22 23 24 26 32 36 37 37
28 32 24 11 7 11 15 15 6 4 4 6 6 6 12 11 9 4 7 13 16 15 14 19 22 28 28 22 31 29 31 31 25 21 26 30 32 32 28 25 27 31 36 33
21 20 3 7 16 17 13 13 6 5 4 6 8 6 6 6 8 7 14 20 16 13 18 23 24 25 24 33 32 32 34 25 24 27 30 34 36 33 32 31 28 28 29 30
5 8 12 10 13 15 15 10 14 10 7 3 4 10 11 11 12 15 19 22 17 19 23 23 24 29 31 25 31 33 27 26 30 33 36 36 40 36 32 29 27 27 26 24
10 8 11 15 21 17 19 18 13 10 2 5 3 7 13 10 15 19 21 20 19 18 21 21 25 30 26 29 31 28 26 29 33 36 38 41 43 41 33 29 28 26 25 26
14 17 14 17 16 15 13 13 8 7 5 3 1 6 11 11 11 15 18 21 21 21 21 22 26 27 27 29 29 31 30 31 33 38 43 45 45 45 43 32 28 26 24 24
13 11 12 12 9 13 9 10 10 5 4 7 5 12 10 9 11 17 20 20 22 20 21 30 31 28 28 27 28 32 32 34 38 41 40 39 46 44 37 30 25 24 23 23
7 6 7 13 8 5 8 8 11 16 15 8 3 12 17 14 12 17 20 20 21 24 28 30 30 27 26 26 31 34 33 36 40 42 43 45 42 35 31 26 24 23 23 23
11 8 7 10 13 12 15 13 16 12 13 15 18 23 19 15 13 17 19 22 27 25 28 30 26 26 27 30 34 33 34 40 44 44 42 41 35 32 28 25 23 24 24 23
11 5 13 15 14 11 15 14 14 9 12 11 18 14 11 17 14 14 19 24 25 27 27 25 26 26 29 31 31 36 41 38 38 38 36 34 31 30 28 24 21 24 22 22
7 6 11 16 2 10 11 5 2 5 8 9 11 10 16 23 19 15 19 23 26 25 23 23 25 26 30 35 40 41 37 36 34 33 32 30 29 27 26 23 21 20 18 17
8 8 8 6 14 14 7 8 11 8 13 22 22 22 20 21 16 17 19 20 21 21 24 23 25 30 37 41 39 38 36 36 34 32 31 29 28 26 24 22 19 18 16 14
9 8 7 9 12 3 6 6 8 11 14 15 17 17 21 22 17 16 19 21 19 19 20 24 30 36 38 37 35 34 34 33 32 31 29 29 28 25 23 21 17 16 15 12
9 6 7 3 9 8 6 5 6 10 18 15 17 19 19 17 19 22 22 22 21 22 26 30 32 36 33 32 31 32 31 31 31 29 27 26 25 21 20 18 14 13 11 10
7 7 6 5 4 2 3 6 7 12 12 17 18 21 21 21 22 22 20 20 22 25 29 31 32 31 31 30 31 30 30 30 29 27 26 26 25 22 19 16 13 11 10 9
7 4 4 6 4 4 6 6 10 8 16 18 19 18 21 20 18 18 19 22 23 27 30 30 29 29 29 28 28 29 28 28 29 28 26 25 24 22 18 16 14 11 7 9
2 3 2 3 3 3 10 9 9 16 18 19 16 15 15 16 17 17 20 23 28 28 26 26 25 27 27 25 25 26 27 28 29 28 25 24 23 22 20 16 13 12 9 7
5 1 2 2 4 8 8 12 15 16 16 17 19 19 18 18 19 19 23 30 26 24 24 23 24 25 23 24 25 27 26 27 28 29 28 25 23 21 18 15 12 10 9 11
2 3 3 5 5 9 11 15 16 17 18 21 22 22 20 18 19 24 31 25 22 21 21 21 22 21 24 23 26 27 26 29 32 34 33 28 21 21 13 12 10 7 6 7
2 2 3 5 8 11 12 15 17 16 15 18 18 19 18 19 22 20 18 19 19 19 20 20 21 21 23 23 24 27 28 29 31 36 35 22 19 15 11 11 6 4 4 3
3 3 4 5 10 12 13 12 12 12 14 14 18 19 10 11 16 23 24 20 20 20 21 21 20 22 22 23 23 26 27 29 30 34 30 24 20 16 13 7 6 3 7 6
Wind_Direction
239 278 292 299 309 300 302 294 290 306 286 283 264 256 252 258 270 263 242 303 262 319 335 329 326 328 321 318 316 311 321 328 324 318 295 305 307 306 280 297 291 291 295 302
271 284 311 319 335 78 318 278 282 290 276 271 259 254 253 256 256 258 232 248 243 267 310 317 331 317 312 320 320 322 323 317 316 308 302 309 307 299 262 281 286 273 282 288
270 295 327 325 328 266 279 239 267 288 281 261 248 245 243 234 231 238 237 271 234 249 263 302 302 312 313 316 317 320 311 311 308 310 300 308 294 278 268 275 281 270 279 286
269 334 325 323 333 261 252 236 302 296 278 266 257 249 268 239 236 230 242 253 237 250 272 290 293 299 312 308 308 308 313 314 312 312 309 310 302 293 281 271 276 271 271 283
287 300 310 318 315 248 254 291 300 292 310 311 260 239 276 250 224 225 245 238 235 268 277 275 299 302 297 302 309 319 315 315 315 319 316 310 309 304 290 280 276 277 275 279
276 284 292 306 295 265 301 316 308 296 307 295 297 222 282 274 247 239 242 235 241 275 280 287 295 298 299 305 312 317 313 321 320 321 319 321 318 308 296 284 276 270 272 276
276 277 293 282 298 309 309 308 309 318 322 234 275 258 279 285 263 228 255 237 273 277 283 284 288 298 307 305 315 318 321 320 321 330 330 334 335 330 321 307 290 283 277 279
280 288 252 296 321 305 295 301 252 238 225 273 265 255 273 251 209 212 230 240 265 275 268 273 289 300 293 311 318 316 315 318 333 335 333 332 332 330 323 323 314 295 290 275
229 246 262 329 329 323 312 272 285 263 279 264 252 264 277 250 236 239 237 247 254 258 268 284 298 310 305 307 306 308 313 332 333 334 333 328 327 326 321 315 320 308 296 290
247 277 300 304 292 300 304 296 276 282 260 269 256 266 256 264 263 245 246 252 259 291 266 279 302 307 300 299 305 326 330 327 329 328 325 323 325 325 319 316 310 312 295 290
270 277 281 302 313 311 321 286 287 283 274 197 265 257 279 290 268 270 252 246 260 261 272 292 306 314 302 304 323 328 325 320 318 319 318 320 319 322 323 315 310 311 303 291
278 284 315 322 323 307 297 290 285 273 257 241 256 290 292 307 298 250 249 264 258 262 283 307 311 307 307 311 317 324 320 315 313 313 315 312 313 315 314 311 307 307 303 301
310 317 327 321 349 242 329 299 290 285 267 256 241 287 303 308 290 245 254 258 252 272 293 305 300 299 301 303 314 321 309 308 311 309 305 304 307 314 311 309 302 300 299 302
279 299 318 293 297 293 311 294 294 286 261 272 275 289 298 310 301 265 260 257 271 289 295 299 297 297 294 302 313 307 305 306 304 303 306 307 309 309 308 303 293 294 303 298
277 308 325 308 302 312 317 283 280 265 271 281 291 300 316 328 306 284 276 279 280 284 291 296 290 289 299 307 305 305 307 309 309 308 309 310 312 306 304 304 300 298 303 307
277 293 313 334 353 322 326 331 344 272 301 311 302 305 320 326 307 280 288 276 273 281 284 280 287 298 307 308 313 314 313 315 312 312 312 312 311 307 303 301 301 297 300 312
260 287 312 317 331 323 286 315 325 333 324 321 309 306 310 313 288 269 266 267 286 283 279 284 297 305 309 313 315 314 317 318 319 317 315 316 313 308 306 304 299 293 290 294
266 286 296 305 329 348 323 316 329 328 329 317 307 313 317 310 284 280 283 291 281 275 285 300 307 309 312 315 317 317 319 320 321 320 321 319 315 309 306 302 293 286 289 294
268 264 303 301 312 287 283 328 304 335 334 336 332 326 313 290 293 299 300 295 283 289 302 309 309 313 316 319 318 321 323 324 324 323 325 319 317 315 310 302 289 281 274 290
302 290 298 309 290 265 350 340 310 328 328 339 329 320 309 310 312 310 313 317 316 318 318 315 318 321 321 323 322 326 329 331 329 329 327 326 324 317 311 308 293 276 258 274
301 276 295 293 278 290 356 311 317 326 329 328 324 318 312 316 316 322 326 322 324 323 319 320 323 325 325 323 326 331 335 338 338 334 330 328 324 315 308 303 301 286 246 262
256 281 258 290 286 317 325 311 315 315 319 326 339 340 340 335 331 330 333 329 322 319 320 323 327 327 325 328 332 339 344 346 343 337 329 323 326 324 314 301 293 290 254 266
271 335 328 285 293 299 311 318 316 321 330 351 356 350 346 343 334 325 323 322 323 322 324 327 330 328 333 336 343 348 347 347 349 348 340 328 322 317 309 304 289 281 266 246
232 184 282 306 300 317 332 327 318 331 351 352 347 341 336 326 315 317 319 321 324 326 326 330 332 335 337 343 350 346 347 351 353 348 344 335 327 322 311 311 298 283 264 255
171 303 310 334 335 338 332 314 325 337 339 337 333 328 318 313 313 323 333 328 327 330 331 332 336 339 339 348 348 343 350 353 352 347 346 343 334 337 333 315 316 281 202 195
130 57 29 358 344 342 334 324 327 329 331 328 320 333 353 358 355 353 344 338 335 334 333 340 338 337 339 346 346 342 352 352 352 350 350 351 351 350 344 336 322 225 187 181
Height
3191 3190 3190 3189 3188 3183 3184 3184 3182 3181 3181 3179 3176 3174 3174 3175 3175 3174 3175 3174 3173 3173 3173 3171 3170 3169 3168 3165 3164 3162 3160 3158 3155 3152 3151 3148 3144 3141 3137 3136 3133 3131 3129 3126
3189 3187 3188 3186 3182 3180 3180 3182 3179 3178 3177 3174 3171 3170 3170 3169 3170 3171 3173 3172 3172 3172 3171 3170 3167 3168 3164 3162 3161 3159 3156 3154 3152 3149 3146 3142 3137 3134 3132 3130 3127 3125 3124 3121
3186 3186 3185 3183 3180 3178 3177 3176 3176 3174 3171 3169 3167 3168 3165 3164 3166 3167 3168 3168 3168 3169 3168 3167 3166 3165 3162 3160 3158 3156 3154 3152 3149 3145 3141 3137 3133 3130 3127 3124 3121 3118 3117 3117
3184 3182 3181 3180 3178 3177 3175 3174 3173 3169 3167 3166 3165 3164 3160 3160 3161 3161 3162 3164 3163 3164 3165 3163 3163 3161 3160 3158 3156 3154 3151 3147 3144 3139 3135 3131 3128 3125 3122 3118 3115 3113 3111 3109
3180 3178 3179 3177 3175 3174 3174 3173 3170 3169 3166 3161 3160 3162 3154 3154 3155 3158 3158 3159 3159 3161 3160 3159 3159 3158 3156 3154 3152 3148 3145 3141 3137 3134 3130 3126 3122 3118 3115 3112 3109 3106 3104 3102
3178 3177 3176 3176 3174 3174 3172 3169 3166 3164 3162 3160 3158 3158 3151 3150 3152 3155 3156 3155 3158 3158 3156 3155 3155 3154 3151 3148 3144 3142 3139 3136 3132 3128 3123 3121 3117 3112 3108 3104 3100 3098 3095 3093
3174 3174 3175 3174 3173 3171 3169 3166 3163 3162 3161 3160 3156 3155 3150 3149 3150 3151 3152 3153 3154 3153 3152 3151 3150 3148 3146 3144 3141 3138 3134 3130 3126 3121 3117 3112 3108 3104 3100 3096 3092 3088 3085 3083
3172 3172 3172 3171 3170 3168 3165 3163 3162 3163 3162 3156 3154 3152 3148 3147 3148 3148 3150 3151 3151 3150 3149 3148 3147 3145 3142 3139 3135 3132 3128 3124 3120 3116 3112 3108 3104 3099 3094 3089 3084 3080 3077 3074
3169 3169 3169 3167 3165 3167 3163 3161 3159 3156 3154 3153 3152 3150 3148 3146 3146 3146 3146 3146 3147 3146 3144 3143 3142 3140 3137 3135 3132 3128 3124 3119 3116 3111 3106 3102 3097 3092 3087 3083 3079 3074 3071 3068
3164 3164 3163 3162 3163 3164 3161 3160 3156 3154 3153 3152 3149 3147 3143 3144 3143 3143 3141 3140 3142 3141 3140 3141 3139 3137 3133 3131 3127 3122 3118 3114 3110 3106 3101 3096 3090 3084 3080 3076 3072 3069 3065 3062
3161 3160 3160 3158 3159 3158 3158 3157 3155 3152 3151 3149 3150 3144 3141 3141 3141 3139 3139 3139 3139 3138 3138 3137 3135 3133 3129 3126 3122 3117 3114 3110 3106 3101 3096 3090 3084 3079 3074 3069 3065 3062 3058 3056
3158 3156 3155 3156 3155 3155 3154 3154 3153 3150 3150 3148 3145 3140 3139 3139 3138 3136 3136 3136 3136 3136 3134 3133 3130 3128 3124 3121 3118 3114 3110 3105 3101 3096 3090 3084 3078 3074 3068 3063 3059 3055 3053 3050
3158 3155 3154 3153 3154 3153 3153 3153 3151 3149 3147 3145 3144 3140 3136 3135 3133 3133 3134 3134 3135 3133 3131 3129 3127 3124 3121 3118 3114 3110 3105 3101 3095 3089 3083 3077 3071 3066 3062 3057 3053 3050 3047 3045
3156 3156 3156 3156 3155 3154 3151 3150 3149 3147 3145 3142 3140 3136 3135 3133 3132 3131 3132 3132 3131 3129 3128 3127 3123 3121 3119 3116 3111 3107 3101 3094 3088 3080 3073 3068 3063 3059 3056 3052 3048 3044 3041 3038
3156 3155 3154 3152 3152 3152 3148 3146 3145 3143 3142 3140 3138 3135 3135 3133 3132 3131 3131 3129 3128 3126 3125 3123 3120 3118 3115 3111 3106 3101 3094 3086 3079 3072 3066 3061 3056 3053 3050 3046 3043 3039 3036 3033
3154 3153 3152 3150 3149 3149 3146 3144 3143 3142 3140 3139 3137 3135 3133 3131 3130 3129 3128 3126 3124 3123 3121 3119 3117 3114 3110 3105 3099 3091 3084 3078 3072 3066 3060 3055 3050 3047 3043 3040 3037 3034 3031 3029
3153 3152 3151 3148 3147 3145 3145 3143 3142 3141 3140 3139 3135 3133 3130 3129 3128 3127 3125 3124 3122 3120 3118 3116 3113 3110 3104 3097 3091 3084 3078 3071 3065 3059 3053 3048 3044 3040 3036 3033 3031 3029 3027 3025
3151 3151 3151 3149 3147 3146 3145 3143 3143 3141 3140 3136 3134 3131 3128 3126 3125 3125 3123 3121 3119 3117 3116 3113 3109 3104 3098 3091 3085 3079 3071 3065 3058 3053 3047 3041 3037 3033 3030 3027 3026 3023 3022 3021
3151 3151 3152 3150 3148 3146 3143 3143 3142 3140 3138 3135 3132 3130 3128 3126 3125 3123 3121 3119 3117 3115 3113 3109 3103 3098 3092 3085 3080 3073 3066 3059 3053 3048 3041 3037 3032 3028 3025 3022 3020 3018 3019 3018
3149 3150 3151 3148 3147 3144 3143 3142 3141 3139 3137 3135 3133 3130 3127 3125 3123 3122 3119 3116 3114 3111 3107 3102 3097 3092 3085 3080 3074 3068 3061 3054 3049 3042 3037 3032 3027 3024 3021 3018 3015 3014 3014 3014
3148 3147 3147 3146 3145 3144 3143 3142 3140 3139 3141 3134 3132 3129 3126 3124 3122 3118 3115 3112 3109 3105 3101 3096 3091 3086 3081 3076 3070 3063 3056 3050 3044 3038 3033 3028 3023 3020 3016 3014 3011 3010 3010 3010
3147 3146 3146 3145 3144 3145 3143 3142 3142 3139 3135 3132 3129 3126 3123 3121 3118 3115 3112 3109 3105 3100 3096 3092 3087 3083 3077 3072 3066 3059 3053 3047 3040 3034 3029 3024 3019 3015 3011 3009 3007 3006 3005 3007
3146 3146 3146 3147 3145 3143 3142 3140 3138 3135 3132 3129 3125 3123 3121 3118 3115 3112 3109 3105 3100 3096 3092 3088 3084 3079 3074 3068 3062 3056 3050 3044 3038 3031 3025 3020 3015 3011 3007 3004 3003 3003 3003 3003
3145 3144 3144 3144 3143 3141 3139 3137 3134 3132 3128 3126 3124 3121 3119 3116 3113 3109 3106 3101 3097 3093 3089 3085 3081 3075 3071 3065 3059 3054 3048 3041 3034 3028 3021 3015 3010 3006 3002 3000 2999 3000 3000 3001
3145 3143 3142 3141 3140 3138 3137 3134 3131 3128 3127 3125 3123 3120 3117 3114 3111 3106 3102 3098 3094 3090 3086 3082 3078 3073 3068 3063 3057 3052 3045 3038 3032 3025 3018 3012 3007 3002 3000 2998 2997 2997 2998 3000
3143 3142 3142 3140 3138 3136 3134 3131 3128 3127 3125 3123 3120 3116 3113 3110 3106 3102 3098 3094 3090 3087 3083 3079 3076 3071 3066 3061 3056 3050 3043 3037 3031 3024 3016 3010 3005 3002 2999 2997 2996 2996 2997 2998